Weather History for Stuart, FL

Change the Weather History Date:

Monday, February 27, 2012

  Actual Average Record
Temperature  
Mean Temperature 76 °F -  
Max Temperature 80 °F 75 °F 75 °F (2014)
Min Temperature 71 °F 52 °F 60 °F (2014)
Cooling Degree Days 10    
Growing Degree Days 26 (Base 50)    
Moisture  
Dew Point 66 °F    
Average Humidity 78    
Maximum Humidity 83    
Minimum Humidity 65    
Precipitation  
Precipitation 0.00 in - - ()
Sea Level Pressure  
Sea Level Pressure 30.27 in    
Wind  
Wind Speed 12 mph (ESE)    
Max Wind Speed 17 mph    
Max Gust Speed 23 mph    
Visibility 10 miles    
Events Rain , Thunderstorm    
Averages and records for this station are not official NWS values.
T = Trace of Precipitation, MM = Missing Value Source: NWS Daily Summary

Daily Weather History Graph

Daily Weather History Graph

Search for Another Location

Airport:

Trip Planner

Search our weather history database for the weather conditions in past years. The results will help you decide how hot, cold, wet, or windy it might be!

Date:

Astronomy

Feb. 27, 2012 Rise Set
Actual Time 6:47 AM EST 6:20 PM EST
Civil Twilight 6:23 AM EST 6:43 PM EST
Nautical Twilight 5:56 AM EST 7:10 PM EST
Astronomical Twilight 5:29 AM EST 7:37 PM EST
Moon 9:51 AM EST (2/27) 11:34 PM EST (2/27)
Length of Visible Light 12h 19m
Length of Day
11h 32m
Waxing Crescent, 29% of the Moon is Illuminated
Feb 27
Waxing Crescent
Feb 29
First Quarter
Mar 8
Full
Mar 14
Last Quarter
Mar 22
New

Hourly Weather History & Observations

Time (EST) Temp. Heat Index Dew Point Humidity Pressure Visibility Wind Dir Wind Speed Gust Speed Precip Events Conditions
12:15 AM 71.6 °F - 64.4 °F 78% 30.28 in 10.0 mi ESE 11.5 mph 21.9 mph N/A   Mostly Cloudy
12:35 AM 71.6 °F - 64.4 °F 78% 30.29 in 10.0 mi East 15.0 mph - N/A   Scattered Clouds
12:55 AM 71.6 °F - 64.4 °F 78% 30.29 in 10.0 mi East 10.4 mph - N/A   Scattered Clouds
1:15 AM 71.6 °F - 64.4 °F 78% 30.28 in 10.0 mi East 12.7 mph - N/A   Scattered Clouds
1:35 AM 71.6 °F - 64.4 °F 78% 30.28 in 10.0 mi East 9.2 mph - N/A   Clear
1:55 AM 71.6 °F - 64.4 °F 78% 30.28 in 10.0 mi ESE 11.5 mph - N/A   Scattered Clouds
2:15 AM 71.6 °F - 64.4 °F 78% 30.27 in 10.0 mi East 9.2 mph - N/A   Clear
2:35 AM 71.6 °F - 64.4 °F 78% 30.26 in 10.0 mi ESE 12.7 mph - N/A   Clear
2:55 AM 71.6 °F - 64.4 °F 78% 30.26 in 10.0 mi ESE 13.8 mph 17.3 mph N/A   Scattered Clouds
3:15 AM 71.6 °F - 64.4 °F 78% 30.25 in 10.0 mi ESE 9.2 mph - N/A   Scattered Clouds
3:35 AM 71.6 °F - 64.4 °F 78% 30.25 in 10.0 mi ESE 11.5 mph - N/A   Mostly Cloudy
3:55 AM 71.6 °F - 64.4 °F 78% 30.25 in 10.0 mi ESE 11.5 mph - N/A   Mostly Cloudy
4:15 AM 71.6 °F - 64.4 °F 78% 30.25 in 10.0 mi ESE 11.5 mph - N/A   Mostly Cloudy
4:35 AM 71.6 °F - 64.4 °F 78% 30.25 in 10.0 mi ESE 11.5 mph - N/A   Mostly Cloudy
4:55 AM 73.4 °F - 64.4 °F 73% 30.25 in 10.0 mi ESE 11.5 mph - N/A   Mostly Cloudy
5:15 AM 71.6 °F - 64.4 °F 78% 30.26 in 10.0 mi ESE 11.5 mph - N/A   Mostly Cloudy
6:47 AM 73.4 °F - 66.2 °F 78% 30.26 in 7.0 mi North - - N/A   Overcast
7:47 AM 73.4 °F - 66.2 °F 78% 30.28 in 7.0 mi ESE 11.5 mph 19.6 mph N/A   Mostly Cloudy
9:47 AM 77.0 °F - 66.2 °F 69% 30.30 in 6.0 mi ESE 16.1 mph 23.0 mph N/A   Mostly Cloudy
11:47 AM 78.8 °F - 68.0 °F 69% 30.31 in 6.0 mi East 17.3 mph 23.0 mph N/A   Mostly Cloudy
12:47 PM 80.6 °F 83.2 °F 68.0 °F 65% 30.28 in 10.0 mi ESE 17.3 mph 23.0 mph N/A   Mostly Cloudy
1:47 PM 78.8 °F - 68.0 °F 69% 30.25 in 10.0 mi ESE 17.3 mph 23.0 mph N/A   Mostly Cloudy
2:47 PM 77.0 °F - 68.0 °F 74% 30.24 in 10.0 mi ESE 17.3 mph - N/A   Mostly Cloudy
3:47 PM 77.0 °F - 68.0 °F 74% 30.23 in 10.0 mi ESE 16.1 mph - N/A   Mostly Cloudy
4:47 PM 80.6 °F 83.2 °F 68.0 °F 65% 30.21 in 10.0 mi ESE 11.5 mph - N/A   Mostly Cloudy
5:47 PM 77.0 °F - 68.0 °F 74% 30.23 in 10.0 mi SE 15.0 mph - N/A   Scattered Clouds
6:47 PM 75.2 °F - 68.0 °F 78% 30.23 in 7.0 mi SE 10.4 mph - N/A   Scattered Clouds
7:15 PM 73.4 °F - 66.2 °F 78% 30.25 in 10.0 mi SE 5.8 mph - N/A   Clear
7:35 PM 73.4 °F - 68.0 °F 83% 30.25 in 10.0 mi ESE 8.1 mph - N/A   Clear
7:55 PM 73.4 °F - 68.0 °F 83% 30.25 in 10.0 mi ESE 8.1 mph - N/A   Scattered Clouds
8:15 PM 73.4 °F - 68.0 °F 83% 30.27 in 10.0 mi East 8.1 mph - N/A   Scattered Clouds
8:35 PM 73.4 °F - 68.0 °F 83% 30.27 in 10.0 mi ESE 8.1 mph - N/A   Clear
8:55 PM 73.4 °F - 68.0 °F 83% 30.27 in 10.0 mi East 9.2 mph - N/A   Clear
9:15 PM 75.2 °F - 68.0 °F 78% 30.28 in 10.0 mi ESE 8.1 mph - N/A   Scattered Clouds
9:35 PM 73.4 °F - 68.0 °F 83% 30.28 in 10.0 mi ESE 10.4 mph - N/A   Clear
9:55 PM 75.2 °F - 68.0 °F 78% 30.30 in 10.0 mi ESE 8.1 mph - N/A   Scattered Clouds
10:15 PM 75.2 °F - 68.0 °F 78% 30.30 in 10.0 mi ESE 9.2 mph - N/A Thunderstorm Scattered Clouds
10:35 PM 73.4 °F - 68.0 °F 83% 30.29 in 10.0 mi ESE 10.4 mph - N/A   Light Drizzle
10:55 PM 73.4 °F - 68.0 °F 83% 30.29 in 10.0 mi East 11.5 mph 16.1 mph N/A   Light Drizzle
11:15 PM 73.4 °F - 68.0 °F 83% 30.29 in 10.0 mi ESE 10.4 mph - N/A Rain Light Rain
11:35 PM 73.4 °F - 68.0 °F 83% 30.29 in 10.0 mi SE 8.1 mph - N/A Thunderstorm Scattered Clouds
11:55 PM 73.4 °F - 68.0 °F 83% 30.28 in 10.0 mi East 9.2 mph - N/A Thunderstorm Overcast